Location: Sungai Jaoh
(2.9167°N, 113.9167°E)
Time: 14:59:39
(UTC+00:00)

SWIFT - Pass Details

Date: 30 November 2020
Orbit: 544 x 559 km, 20.6° (Epoch: 25 January)

Event Time Altitude Azimuth Distance (km) Brightness Sun altitude
Exits shadow 20:03:17 24° 141° (SE) 1,173 4.5 -31.1°
Drops below altitude 10° 20:05:10 10° 128° (SE) 1,831 5.8 -30.7°
Sets 20:07:32 0° 122° (ESE) 2,725 7.0 -30.2°
